This is the latest recevied weather packets stored in our database for station/object F6ANO-13. If no packets are shown the sender has not sent any weather packets the latest 10 day(s).
| Time | Temp. | Humidity | Pressure | Rain* | Wind** | Luminosity | Snow |
|---|---|---|---|---|---|---|---|
| 1788016482 | 18.89° C | 96% | 1012.9 hPa | 0.51 mm | - | - | - |
| 1788016062 | 18.89° C | 95% | 1013.1 hPa | 0.51 mm | - | - | - |
| 1788015642 | 18.89° C | 95% | 1013.1 hPa | 0.51 mm | - | - | - |
| 1788015222 | 18.89° C | 96% | 1013 hPa | 0.51 mm | - | - | - |
| 1788014801 | 18.89° C | 96% | 1013.1 hPa | 0.76 mm | - | - | - |
| 1788014381 | 18.89° C | 96% | 1013 hPa | 0.76 mm | - | - | - |
| 1788013961 | 18.89° C | 95% | 1013.1 hPa | 0.51 mm | - | - | - |
| 1788013541 | 18.89° C | 95% | 1013.2 hPa | 0.51 mm | - | - | - |
| 1788013120 | 18.89° C | 95% | 1013.2 hPa | 0.51 mm | - | - | - |
| 1788012700 | 18.89° C | 96% | 1013.3 hPa | 0.76 mm | - | - | - |
| 1788012338 | 18.89° C | 95% | 1013.2 hPa | 0.76 mm | - | - | - |
| 1788011918 | 18.89° C | 96% | 1013.4 hPa | 1.27 mm | - | - | - |
| 1788011499 | 19.44° C | 95% | 1013.4 hPa | 1.27 mm | - | - | - |
| 1788011080 | 19.44° C | 95% | 1013.4 hPa | 1.02 mm | - | - | - |
| 1788010659 | 18.89° C | 94% | 1013.4 hPa | 1.02 mm | - | - | - |
| 1788010239 | 19.44° C | 94% | 1013.3 hPa | 0.76 mm | - | - | - |
| 1788009820 | 19.44° C | 93% | 1013.3 hPa | 0.76 mm | - | - | - |
| 1788009400 | 19.44° C | 92% | 1013.4 hPa | 0.76 mm | - | - | - |
| 1788008979 | 20° C | 90% | 1013.3 hPa | 0.51 mm | - | - | - |
| 1788008978 | 20° C | 90% | 1013.3 hPa | 0.51 mm | - | - | - |
| 1788008559 | 20° C | 88% | 1013.4 hPa | 0 mm | - | - | - |
| 1788008140 | 21.11° C | 86% | 1013.3 hPa | 0 mm | - | - | - |
| 1788007718 | 21.11° C | 83% | 1013.3 hPa | 0 mm | - | - | - |
| 1788007300 | 21.11° C | 82% | 1013.2 hPa | 0 mm | - | - | - |
| 1788006881 | 21.67° C | 81% | 1013.3 hPa | 0 mm | - | - | - |
* Rain latest hour (hover to see other rain measurements)
** Current wind speed in m/s (hover to see current wind gust speed)